GW5911 Weather Reports


Display with metric or nautical units.
time (UTC)temp
F
wind
direction
speed
MPH
gust
MPH
rain 1hr
in
rain 24hr
in
rain mn
in
humidity
%
barometer
mb
20260906215512 90 123 3.0 15.0 0.00 0.00 0.00 31 1015.1
20260906215023 90 111 5.0 15.0 0.00 0.00 0.00 30 1015.3
20260906214511 90 105 6.0 13.0 0.00 0.00 0.00 31 1015.3
20260906214022 91 120 5.0 13.0 0.00 0.00 0.00 30 1015.4
20260906213530 91 120 5.0 11.0 0.00 0.00 0.00 30 1015.5
20260906213024 91 164 5.0 11.0 0.00 0.00 0.00 29 1015.5
20260906212513 91 17 4.0 10.0 0.00 0.00 0.00 29 1015.6
20260906212021 91 27 5.0 9.0 0.00 0.00 0.00 29 1015.7
20260906211529 91 55 2.0 5.0 0.00 0.00 0.00 29 1015.8
20260906211020 91 127 2.0 11.0 0.00 0.00 0.00 30 1015.9
20260906210529 90 102 4.0 12.0 0.00 0.00 0.00 31 1016.0
20260906210018 90 63 6.0 10.0 0.00 0.00 0.00 32 1016.1
20260906205526 90 73 5.0 9.0 0.00 0.00 0.00 31 1016.2
20260906205015 90 50 3.0 6.0 0.00 0.00 0.00 30 1016.2
20260906204524 90 116 4.0 9.0 0.00 0.00 0.00 30 1016.4
20260906204017 90 327 4.0 9.0 0.00 0.00 0.00 32 1016.5
20260906203525 89 154 4.0 8.0 0.00 0.00 0.00 32 1016.5
20260906203034 88 16 3.0 9.0 0.00 0.00 0.00 33 1016.5
20260906202522 88 310 3.0 9.0 0.00 0.00 0.00 33 1016.6
20260906202030 88 80 3.0 10.0 0.00 0.00 0.00 33 1016.7
20260906201521 88 354 6.0 12.0 0.00 0.00 0.00 33 1016.7
20260906201030 88 117 3.0 10.0 0.00 0.00 0.00 33 1016.8
20260906200520 88 24 3.0 10.0 0.00 0.00 0.00 34 1016.9
20260906200028 88 39 5.0 10.0 0.00 0.00 0.00 34 1017.0
20260906195537 88 14 5.0 9.0 0.00 0.00 0.00 34 1017.2
20260906195045 88 55 4.0 6.0 0.00 0.00 0.00 34 1017.1
20260906194516 87 327 2.0 6.0 0.00 0.00 0.00 34 1017.1
20260906194025 87 29 3.0 10.0 0.00 0.00 0.00 34 1017.2
20260906193514 87 94 4.0 10.0 0.00 0.00 0.00 35 1017.3
20260906193023 87 359 2.0 8.0 0.00 0.00 0.00 35 1017.4
20260906192512 86 359 2.0 8.0 0.00 0.00 0.00 35 1017.4
20260906192023 86 73 4.0 8.0 0.00 0.00 0.00 35 1017.6
20260906191530 86 318 4.0 9.0 0.00 0.00 0.00 36 1017.6
20260906191021 85 95 1.0 6.0 0.00 0.00 0.00 36 1017.7
20260906190514 85 345 4.0 8.0 0.00 0.00 0.00 36 1017.8
20260906190046 85 66 3.0 9.0 0.00 0.00 0.00 37 1017.8
20260906185513 85 72 4.0 9.0 0.00 0.00 0.00 37 1017.9
20260906185022 84 46 2.0 7.0 0.00 0.00 0.00 39 1018.1
20260906184529 84 94 3.0 10.0 0.00 0.00 0.00 39 1018.0
20260906184039 83 95 5.0 10.0 0.00 0.00 0.00 40 1018.2
20260906183526 83 285 1.0 10.0 0.00 0.00 0.00 41 1018.2
20260906183036 83 337 4.0 10.0 0.00 0.00 0.00 42 1018.5
20260906182543 83 359 2.0 6.0 0.00 0.00 0.00 42 1018.5
20260906182031 83 335 3.0 6.0 0.00 0.00 0.00 42 1018.6
20260906181522 83 328 3.0 6.0 0.00 0.00 0.00 42 1018.6
20260906181050 82 48 3.0 7.0 0.00 0.00 0.00 42 1018.8
20260906180520 82 4 1.0 4.0 0.00 0.00 0.00 42 1018.9
20260906180012 82 11 3.0 6.0 0.00 0.00 0.00 42 1019.1
20260906175543 82 18 2.0 7.0 0.00 0.00 0.00 43 1019.2
20260906175011 81 89 1.0 5.0 0.00 0.00 0.00 43 1019.3
20260906174540 81 359 2.0 7.0 0.00 0.00 0.00 43 1019.4
20260906174028 81 103 3.0 6.0 0.00 0.00 0.00 44 1019.5
20260906173516 81 65 3.0 7.0 0.00 0.00 0.00 45 1019.7
20260906173026 81 304 2.0 5.0 0.00 0.00 0.00 44 1019.7
20260906172514 81 343 3.0 5.0 0.00 0.00 0.00 45 1019.9
20260906172023 80 354 2.0 4.0 0.00 0.00 0.00 45 1020.0
20260906171512 80 114 2.0 7.0 0.00 0.00 0.00 46 1020.1
20260906171023 80 75 4.0 7.0 0.00 0.00 0.00 46 1020.2
20260906170515 79 79 1.0 4.0 0.00 0.00 0.00 48 1020.3
20260906170024 79 150 3.0 5.0 0.00 0.00 0.00 48 1020.4
20260906165533 78 291 3.0 5.0 0.00 0.00 0.00 49 1020.5
20260906165020 78 314 2.0 4.0 0.00 0.00 0.00 49 1020.6
20260906164528 78 301 1.0 4.0 0.00 0.00 0.00 49 1020.6
20260906164039 78 62 2.0 4.0 0.00 0.00 0.00 50 1020.5
20260906163547 78 62 2.0 5.0 0.00 0.00 0.00 50 1020.5
20260906163015 77 114 2.0 5.0 0.00 0.00 0.00 51 1020.6
20260906162524 77 102 3.0 6.0 0.00 0.00 0.00 51 1020.6
20260906162032 76 99 2.0 4.0 0.00 0.00 0.00 53 1020.6
20260906161522 76 330 1.0 5.0 0.00 0.00 0.00 54 1020.6
20260906161014 76 326 1.0 5.0 0.00 0.00 0.00 54 1020.6
20260906160524 76 114 1.0 5.0 0.00 0.00 0.00 54 1020.6
20260906160013 76 58 2.0 5.0 0.00 0.00 0.00 56 1020.5
20260906155521 76 333 1.0 5.0 0.00 0.00 0.00 56 1020.6
20260906155030 76 27 2.0 8.0 0.00 0.00 0.00 55 1020.4
20260906154521 76 359 3.0 8.0 0.00 0.00 0.00 56 1020.5
20260906154029 76 4 1.0 2.0 0.00 0.00 0.00 57 1020.6
20260906153519 75 83 1.0 3.0 0.00 0.00 0.00 57 1020.7
20260906153029 75 83 1.0 3.0 0.00 0.00 0.00 58 1020.7
20260906152523 75 20 1.0 3.0 0.00 0.00 0.00 58 1020.8
20260906152012 74 25 2.0 3.0 0.00 0.00 0.00 59 1020.7
20260906151523 74 37 2.0 3.0 0.00 0.00 0.00 60 1020.7
20260906151031 73 56 0.0 3.0 0.00 0.00 0.00 62 1020.8
20260906150521 72 56 1.0 3.0 0.00 0.00 0.00 63 1020.8
20260906150031 71 77 0.0 5.0 0.00 0.00 0.00 64 1020.7
20260906145521 71 354 3.0 6.0 0.00 0.00 0.00 63 1020.8
20260906145029 72 295 3.0 6.0 0.00 0.00 0.00 63 1020.8
20260906144518 71 306 1.0 3.0 0.00 0.00 0.00 64 1020.7
20260906144031 71 324 1.0 5.0 0.00 0.00 0.00 64 1020.6
20260906143520 70 231 3.0 5.0 0.00 0.00 0.00 64 1020.8
20260906143050 70 293 1.0 5.0 0.00 0.00 0.00 64 1020.7
20260906142537 70 238 4.0 5.0 0.00 0.00 0.00 64 1020.8
20260906142024 70 269 2.0 4.0 0.00 0.00 0.00 65 1020.8
20260906141532 70 220 1.0 3.0 0.00 0.00 0.00 65 1020.8
20260906141022 69 270 1.0 5.0 0.00 0.00 0.00 67 1020.8
20260906140531 69 216 3.0 5.0 0.00 0.00 0.00 67 1020.7
20260906140042 69 224 2.0 5.0 0.00 0.00 0.00 69 1020.8
20260906135530 68 248 2.0 5.0 0.00 0.00 0.00 69 1020.9
20260906135040 69 232 2.0 5.0 0.00 0.00 0.00 70 1020.8
20260906134528 68 253 0.0 4.0 0.00 0.00 0.00 71 1020.8
20260906134022 68 227 1.0 4.0 0.00 0.00 0.00 72 1020.7
20260906133551 68 197 2.0 4.0 0.00 0.00 0.00 72 1020.7
20260906133019 68 243 0.0 2.0 0.00 0.00 0.00 73 1020.7
20260906132528 67 297 0.0 2.0 0.00 0.00 0.00 74 1020.6
20260906132037 67 122 1.0 2.0 0.00 0.00 0.00 74 1020.5
20260906131525 67 335 1.0 2.0 0.00 0.00 0.00 74 1020.5
20260906131052 66 328 0.0 0.0 0.00 0.00 0.00 75 1020.4
20260906130541 66 328 0.0 2.0 0.00 0.00 0.00 76 1020.3
20260906130050 66 328 0.0 2.0 0.00 0.00 0.00 76 1020.2
20260906125519 66 328 1.0 2.0 0.00 0.00 0.00 75 1020.2
20260906125028 65 345 0.0 3.0 0.00 0.00 0.00 75 1020.1
20260906124517 65 345 0.0 3.0 0.00 0.00 0.00 75 1020.1
20260906124025 65 347 1.0 8.0 0.00 0.00 0.00 75 1020.0
20260906123517 66 343 3.0 8.0 0.00 0.00 0.00 75 1020.1
20260906123026 66 324 2.0 4.0 0.00 0.00 0.00 74 1020.2
20260906122534 66 326 1.0 3.0 0.00 0.00 0.00 74 1020.2
20260906122022 66 335 1.0 5.0 0.00 0.00 0.00 74 1020.3
20260906121530 66 280 3.0 5.0 0.00 0.00 0.00 74 1020.2
20260906121018 66 321 2.0 5.0 0.00 0.00 0.00 74 1020.2
20260906120526 66 354 1.0 4.0 0.00 0.00 0.00 74 1020.2
20260906120014 66 354 2.0 3.0 0.00 0.00 0.00 73 1020.3
20260906115522 66 324 1.0 6.0 0.00 0.00 0.00 73 1020.2
20260906115031 66 347 2.0 6.0 0.00 0.00 0.00 73 1020.2
20260906114526 66 331 1.0 4.0 0.00 0.00 0.00 72 1020.2
20260906114015 67 289 0.0 5.0 0.00 0.00 0.00 71 1020.2
20260906113522 67 322 1.0 4.0 0.00 0.00 0.00 70 1020.2
20260906113031 67 349 0.0 0.0 0.00 0.00 0.00 68 1020.1
20260906112521 67 349 0.0 3.0 0.00 0.00 0.00 68 1020.0
20260906112030 67 332 1.0 3.0 0.00 0.00 0.00 68 1020.1
20260906111521 67 359 0.0 3.0 0.00 0.00 0.00 67 1019.9
20260906111029 67 339 0.0 3.0 0.00 0.00 0.00 65 1019.9
20260906110518 67 314 1.0 4.0 0.00 0.00 0.00 65 1019.9
20260906110024 68 315 2.0 4.0 0.00 0.00 0.00 64 1019.8
20260906105517 68 316 1.0 4.0 0.00 0.00 0.00 62 1019.5
20260906105025 68 339 1.0 6.0 0.00 0.00 0.00 60 1019.5
20260906104533 68 337 1.0 6.0 0.00 0.00 0.00 59 1019.5
20260906104022 68 327 2.0 4.0 0.00 0.00 0.00 59 1019.4
20260906103531 68 264 0.0 0.0 0.00 0.00 0.00 60 1019.4
20260906103022 68 354 0.0 5.0 0.00 0.00 0.00 61 1019.4
20260906102531 68 27 3.0 6.0 0.00 0.00 0.00 61 1019.3
20260906102022 68 345 2.0 6.0 0.00 0.00 0.00 61 1019.2
20260906101529 67 359 2.0 6.0 0.00 0.00 0.00 60 1019.2
20260906101024 67 29 0.0 1.0 0.00 0.00 0.00 58 1019.1
20260906100512 67 330 0.0 1.0 0.00 0.00 0.00 58 1019.3
20260906100021 67 330 0.0 1.0 0.00 0.00 0.00 58 1019.2
20260906095529 67 84 0.0 0.0 0.00 0.00 0.00 58 1019.3
20260906095019 68 84 0.0 0.0 0.00 0.00 0.00 57 1019.4
20260906094528 68 84 0.0 0.0 0.00 0.00 0.00 57 1019.3
20260906094016 68 84 0.0 1.0 0.00 0.00 0.00 56 1019.3
20260906093523 68 84 0.0 1.0 0.00 0.00 0.00 57 1019.4
20260906093013 68 84 0.0 2.0 0.00 0.00 0.00 57 1019.4
20260906092527 68 84 1.0 2.0 0.00 0.00 0.00 58 1019.4
20260906092015 68 66 0.0 0.0 0.00 0.00 0.00 57 1019.2
20260906091523 69 66 0.0 1.0 0.00 0.00 0.00 57 1019.2
20260906091030 69 66 0.0 1.0 0.00 0.00 0.00 57 1019.2
20260906090518 69 66 0.0 1.0 0.00 0.00 0.00 57 1019.2
20260906090027 69 66 0.0 1.0 0.00 0.00 0.00 57 1019.1
20260906085516 69 24 0.0 0.0 0.00 0.00 0.00 56 1019.0
20260906085024 69 24 0.0 1.0 0.00 0.00 0.00 55 1019.0
20260906084512 69 24 0.0 2.0 0.00 0.00 0.00 55 1019.0
20260906084026 70 56 1.0 2.0 0.00 0.00 0.00 55 1019.0
20260906083514 70 116 0.0 0.0 0.00 0.00 0.00 54 1018.9
20260906083022 71 116 0.0 1.0 0.00 0.00 0.00 54 1018.9
20260906082529 71 116 0.0 2.0 0.00 0.00 0.00 53 1019.0
20260906082017 71 116 0.0 3.0 0.00 0.00 0.00 51 1019.2
20260906081525 72 138 1.0 4.0 0.00 0.00 0.00 51 1019.1
20260906081033 72 161 1.0 4.0 0.00 0.00 0.00 51 1019.1
20260906080522 72 176 1.0 2.0 0.00 0.00 0.00 50 1019.0
20260906080031 72 191 1.0 2.0 0.00 0.00 0.00 50 1019.1
20260906075522 72 159 0.0 3.0 0.00 0.00 0.00 49 1019.0
20260906075014 73 213 1.0 3.0 0.00 0.00 0.00 48 1018.9
20260906074545 73 206 2.0 3.0 0.00 0.00 0.00 48 1018.8
20260906074012 73 148 0.0 1.0 0.00 0.00 0.00 47 1018.8
20260906073519 73 134 0.0 1.0 0.00 0.00 0.00 46 1018.7
20260906073049 74 134 0.0 3.0 0.00 0.00 0.00 46 1018.8
20260906072515 74 233 1.0 4.0 0.00 0.00 0.00 46 1018.7
20260906072023 74 218 1.0 5.0 0.00 0.00 0.00 45 1018.7
20260906071512 74 235 1.0 6.0 0.00 0.00 0.00 45 1018.6
20260906071022 74 213 3.0 6.0 0.00 0.00 0.00 45 1018.6
20260906070529 74 146 2.0 3.0 0.00 0.00 0.00 45 1018.5
20260906070021 74 114 1.0 5.0 0.00 0.00 0.00 45 1018.4
20260906065514 74 324 1.0 5.0 0.00 0.00 0.00 45 1018.3
20260906065024 75 210 0.0 2.0 0.00 0.00 0.00 44 1018.5
20260906064513 75 210 0.0 5.0 0.00 0.00 0.00 43 1018.6
20260906064041 75 206 1.0 5.0 0.00 0.00 0.00 43 1018.6
20260906063529 76 214 3.0 5.0 0.00 0.00 0.00 43 1018.8
20260906063020 76 221 4.0 5.0 0.00 0.00 0.00 42 1018.8
20260906062529 76 216 2.0 5.0 0.00 0.00 0.00 41 1018.9
20260906062017 76 205 2.0 5.0 0.00 0.00 0.00 41 1019.0
20260906061526 76 229 4.0 5.0 0.00 0.00 0.00 41 1019.0
20260906061015 77 207 1.0 3.0 0.00 0.00 0.00 41 1019.1
20260906060526 77 108 1.0 3.0 0.00 0.00 0.00 40 1019.1
20260906060034 77 96 0.0 2.0 0.00 0.00 0.00 40 1019.2
20260906055521 77 289 0.0 5.0 0.00 0.00 0.00 39 1019.1
20260906055030 78 191 1.0 8.0 0.00 0.00 0.00 39 1019.2
20260906054520 78 212 3.0 8.0 0.00 0.00 0.00 38 1019.2
20260906054029 78 229 2.0 4.0 0.00 0.00 0.00 38 1019.2
20260906053519 78 208 1.0 3.0 0.00 0.00 0.00 37 1019.3
20260906053028 78 75 1.0 3.0 0.00 0.00 0.00 36 1019.3
20260906052517 78 321 1.0 4.0 0.00 0.00 0.00 35 1019.3
20260906052025 78 4 2.0 4.0 0.00 0.00 0.00 35 1019.2
20260906051517 78 287 0.0 4.0 0.00 0.00 0.00 35 1019.3
20260906051045 78 39 0.0 4.0 0.00 0.00 0.00 35 1019.4
20260906050513 78 221 1.0 3.0 0.00 0.00 0.00 35 1019.5
20260906050022 78 335 0.0 3.0 0.00 0.00 0.00 35 1019.5
20260906045530 78 335 1.0 3.0 0.00 0.00 0.00 35 1019.6
20260906045021 78 259 1.0 2.0 0.00 0.00 0.00 36 1019.5
20260906044529 78 259 1.0 2.0 0.00 0.00 0.00 36 1019.5
20260906044019 78 359 0.0 0.0 0.00 0.00 0.00 36 1019.6
20260906043528 78 359 0.0 2.0 0.00 0.00 0.00 35 1019.5
20260906043021 78 359 0.0 3.0 0.00 0.00 0.00 36 1019.4
20260906042529 78 249 0.0 4.0 0.00 0.00 0.00 35 1019.3
20260906042038 78 179 1.0 6.0 0.00 0.00 0.00 36 1019.5
20260906041525 78 116 3.0 9.0 0.00 0.00 0.00 36 1019.4
20260906041014 77 223 2.0 3.0 0.00 0.00 0.00 37 1019.0
20260906040523 77 95 1.0 5.0 0.00 0.00 0.00 36 1018.7
20260906040012 77 8 2.0 5.0 0.00 0.00 0.00 36 1018.5
20260906035522 77 60 3.0 5.0 0.00 0.00 0.00 37 1018.3
20260906035051 77 44 2.0 3.0 0.00 0.00 0.00 37 1018.3
20260906034520 77 56 0.0 1.0 0.00 0.00 0.00 38 1018.2
20260906034013 77 56 0.0 1.0 0.00 0.00 0.00 37 1018.2
20260906033522 77 56 0.0 0.0 0.00 0.00 0.00 37 1018.2
20260906033012 78 56 0.0 1.0 0.00 0.00 0.00 36 1018.1
20260906032520 78 56 0.0 1.0 0.00 0.00 0.00 35 1018.3
20260906032029 78 56 0.0 1.0 0.00 0.00 0.00 35 1018.2
20260906031519 79 56 1.0 1.0 0.00 0.00 0.00 34 1018.1
20260906031047 79 56 0.0 2.0 0.00 0.00 0.00 33 1018.1
20260906030515 80 38 1.0 2.0 0.00 0.00 0.00 33 1018.0
20260906030045 81 30 1.0 3.0 0.00 0.00 0.00 32 1017.8
20260906025512 81 95 1.0 3.0 0.00 0.00 0.00 31 1017.6
20260906025024 82 91 1.0 3.0 0.00 0.00 0.00 30 1017.6
20260906024516 82 107 2.0 3.0 0.00 0.00 0.00 30 1017.5
20260906024045 82 55 0.0 3.0 0.00 0.00 0.00 29 1017.4
20260906023531 83 4 1.0 5.0 0.00 0.00 0.00 29 1017.4
20260906023020 83 40 1.0 5.0 0.00 0.00 0.00 29 1017.3
20260906022529 83 16 1.0 4.0 0.00 0.00 0.00 28 1017.4
20260906022018 84 330 1.0 4.0 0.00 0.00 0.00 28 1017.3
20260906021526 84 29 1.0 4.0 0.00 0.00 0.00 28 1017.2
20260906021015 84 344 2.0 5.0 0.00 0.00 0.00 27 1017.2
20260906020523 85 354 1.0 5.0 0.00 0.00 0.00 27 1017.1
20260906020012 85 344 2.0 5.0 0.00 0.00 0.00 27 1017.1
20260906015527 85 331 2.0 9.0 0.00 0.00 0.00 26 1017.0
20260906015016 85 308 3.0 10.0 0.00 0.00 0.00 26 1016.9
20260906014544 86 346 2.0 8.0 0.00 0.00 0.00 26 1016.9
20260906014012 86 328 3.0 12.0 0.00 0.00 0.00 25 1016.7
20260906013543 86 311 4.0 12.0 0.00 0.00 0.00 25 1016.8
20260906013030 87 306 5.0 13.0 0.00 0.00 0.00 25 1016.7
20260906012518 87 329 5.0 14.0 0.00 0.00 0.00 24 1016.7
20260906012026 88 350 6.0 10.0 0.00 0.00 0.00 23 1016.6
20260906011515 88 52 3.0 9.0 0.00 0.00 0.00 23 1016.4
20260906011023 88 335 6.0 9.0 0.00 0.00 0.00 22 1016.5
20260906010516 88 341 4.0 8.0 0.00 0.00 0.00 22 1016.5
20260906010026 88 350 4.0 6.0 0.00 0.00 0.00 23 1016.4
20260906005514 88 341 2.0 3.0 0.00 0.00 0.00 22 1016.5
20260906005023 89 4 1.0 3.0 0.00 0.00 0.00 22 1016.5
20260906004511 89 333 1.0 4.0 0.00 0.00 0.00 22 1016.5
20260906004022 89 268 0.0 4.0 0.00 0.00 0.00 22 1016.5
20260906003530 89 339 0.0 4.0 0.00 0.00 0.00 22 1016.6
20260906003021 89 326 0.0 1.0 0.00 0.00 0.00 22 1016.5
20260906002530 89 343 0.0 4.0 0.00 0.00 0.00 22 1016.5
20260906002021 89 342 1.0 4.0 0.00 0.00 0.00 22 1016.4
20260906001513 89 329 1.0 4.0 0.00 0.00 0.00 22 1016.5
20260906001021 89 312 1.0 4.0 0.00 0.00 0.00 22 1016.4
20260906000530 89 342 0.0 3.0 0.00 0.00 0.00 22 1016.4
20260906000020 90 45 1.0 6.0 0.00 0.00 0.00 21 1016.5
20260905235530 90 341 3.0 6.0 0.00 0.00 0.00 21 1016.4
20260905235021 90 10 1.0 5.0 0.00 0.00 0.00 21 1016.4
20260905234529 91 332 3.0 6.0 0.00 0.00 0.00 21 1016.4
20260905234019 91 22 3.0 7.0 0.00 0.00 0.00 20 1016.4
20260905233511 91 77 0.0 5.0 0.00 0.00 0.00 20 1016.4
20260905233040 91 60 2.0 6.0 0.00 0.00 0.00 20 1016.4
20260905232528 91 79 3.0 7.0 0.00 0.00 0.00 20 1016.3
20260905232017 91 119 1.0 3.0 0.00 0.00 0.00 20 1016.4
20260905231524 91 345 0.0 5.0 0.00 0.00 0.00 20 1016.3
20260905231011 91 338 1.0 5.0 0.00 0.00 0.00 20 1016.4
20260905230522 91 37 3.0 5.0 0.00 0.00 0.00 21 1016.4
20260905230051 91 33 0.0 2.0 0.00 0.00 0.00 21 1016.4
20260905225521 91 25 0.0 5.0 0.00 0.00 0.00 21 1016.2
20260905225030 91 25 3.0 6.0 0.00 0.00 0.00 21 1016.4
20260905224518 91 59 2.0 7.0 0.00 0.00 0.00 21 1016.3
20260905224026 90 103 0.0 1.0 0.00 0.00 0.00 21 1016.2
20260905223518 90 342 0.0 2.0 0.00 0.00 0.00 21 1016.3
20260905223047 91 354 0.0 5.0 0.00 0.00 0.00 21 1016.3
20260905222514 91 75 2.0 5.0 0.00 0.00 0.00 21 1016.4
20260905222022 91 359 1.0 8.0 0.00 0.00 0.00 21 1016.4
20260905221531 91 18 2.0 8.0 0.00 0.00 0.00 21 1016.5
20260905221021 91 15 3.0 8.0 0.00 0.00 0.00 21 1016.5
20260905220530 91 304 3.0 7.0 0.00 0.00 0.00 21 1016.5
20260905220021 91 301 3.0 4.0 0.00 0.00 0.00 21 1016.5